TimeCST,TemperatureF,Dew PointF,Humidity,Sea Level PressureIn,VisibilityMPH,Wind Direction,Wind SpeedMPH,Gust SpeedMPH,PrecipitationIn,Events,Conditions,WindDirDegrees,DateUTC
12:12 AM,-2.2,-5.8,85,30.24,10.0,NNW,5.8,-,N/A,,Overcast,340,2013-02-15 06:12:00
12:33 AM,-0.4,-5.8,78,30.24,10.0,NNW,4.6,-,N/A,,Overcast,340,2013-02-15 06:33:00
12:52 AM,-2.2,-5.8,85,30.24,10.0,North,4.6,-,N/A,,Mostly Cloudy,350,2013-02-15 06:52:00
1:13 AM,-2.2,-5.8,85,30.24,10.0,North,6.9,-,N/A,,Clear,350,2013-02-15 07:13:00
1:33 AM,-2.2,-5.8,85,30.24,10.0,North,6.9,-,N/A,,Clear,360,2013-02-15 07:33:00
1:52 AM,-0.4,-4.0,85,30.24,10.0,North,6.9,-,N/A,,Mostly Cloudy,360,2013-02-15 07:52:00
2:13 AM,1.4,-2.2,85,30.24,10.0,North,6.9,-,N/A,,Overcast,350,2013-02-15 08:13:00
2:32 AM,1.4,-0.4,92,30.24,10.0,NNW,6.9,-,N/A,,Overcast,340,2013-02-15 08:32:00
2:53 AM,3.2,-0.4,85,30.25,10.0,North,9.2,-,N/A,,Overcast,350,2013-02-15 08:53:00
3:13 AM,3.2,1.4,92,30.24,10.0,North,10.4,-,N/A,,Overcast,360,2013-02-15 09:13:00
3:32 AM,1.4,-0.4,92,30.25,10.0,North,10.4,-,N/A,,Scattered Clouds,360,2013-02-15 09:32:00
3:53 AM,-0.4,-2.2,92,30.25,10.0,North,8.1,-,N/A,,Scattered Clouds,360,2013-02-15 09:53:00
4:12 AM,-0.4,-4.0,85,30.25,10.0,North,9.2,-,N/A,,Mostly Cloudy,360,2013-02-15 10:12:00
4:32 AM,-0.4,-4.0,85,30.26,10.0,North,6.9,-,N/A,,Mostly Cloudy,350,2013-02-15 10:32:00
4:53 AM,-0.4,-4.0,85,30.26,10.0,North,8.1,-,N/A,,Scattered Clouds,360,2013-02-15 10:53:00
5:12 AM,-2.2,-5.8,85,30.26,10.0,North,8.1,-,N/A,,Clear,350,2013-02-15 11:12:00
5:32 AM,-2.2,-5.8,85,30.27,10.0,North,9.2,-,N/A,,Clear,360,2013-02-15 11:32:00
5:53 AM,-4.0,-7.6,85,30.27,10.0,North,6.9,-,N/A,,Clear,350,2013-02-15 11:53:00
6:12 AM,-4.0,-7.6,85,30.27,10.0,North,8.1,-,N/A,,Clear,360,2013-02-15 12:12:00
6:33 AM,-5.8,-7.6,92,30.27,10.0,North,6.9,-,N/A,,Clear,10,2013-02-15 12:33:00
6:53 AM,-5.8,-9.4,84,30.28,10.0,North,3.5,-,N/A,,Clear,10,2013-02-15 12:53:00
7:12 AM,-5.8,-9.4,84,30.28,10.0,North,4.6,-,N/A,,Clear,350,2013-02-15 13:12:00
7:33 AM,-7.6,-11.2,84,30.29,10.0,North,4.6,-,N/A,,Clear,350,2013-02-15 13:33:00
7:52 AM,-7.6,-9.4,92,30.29,10.0,North,3.5,-,N/A,,Clear,360,2013-02-15 13:52:00
8:12 AM,-5.8,-7.6,92,30.30,10.0,Calm,Calm,-,N/A,,Clear,0,2013-02-15 14:12:00
8:33 AM,-5.8,-9.4,84,30.31,10.0,North,3.5,-,N/A,,Clear,360,2013-02-15 14:33:00
8:52 AM,-4.0,-7.6,85,30.31,10.0,Calm,Calm,-,N/A,,Clear,0,2013-02-15 14:52:00
9:12 AM,-2.2,-5.8,85,30.32,10.0,Calm,Calm,-,N/A,,Clear,0,2013-02-15 15:12:00
9:33 AM,-0.4,-4.0,85,30.32,10.0,NNE,4.6,-,N/A,,Clear,20,2013-02-15 15:33:00
9:53 AM,1.4,-2.2,85,30.33,10.0,NNE,5.8,-,N/A,,Scattered Clouds,20,2013-02-15 15:53:00
10:12 AM,1.4,-2.2,85,30.33,10.0,North,4.6,-,N/A,,Mostly Cloudy,10,2013-02-15 16:12:00
10:33 AM,1.4,-0.4,92,30.33,10.0,North,4.6,-,N/A,,Scattered Clouds,350,2013-02-15 16:33:00
10:53 AM,3.2,-0.4,85,30.33,10.0,North,4.6,-,N/A,,Clear,350,2013-02-15 16:53:00
11:12 AM,3.2,-0.4,85,30.34,10.0,North,5.8,-,N/A,,Clear,360,2013-02-15 17:12:00
11:52 AM,6.8,1.4,79,30.35,10.0,North,5.8,-,N/A,,Clear,350,2013-02-15 17:52:00
12:12 PM,6.8,1.4,79,30.34,10.0,North,5.8,-,N/A,,Clear,350,2013-02-15 18:12:00
12:33 PM,8.6,3.2,79,30.34,10.0,NNW,8.1,-,N/A,,Clear,340,2013-02-15 18:33:00
12:52 PM,10.4,3.2,73,30.34,10.0,NNW,8.1,-,N/A,,Clear,340,2013-02-15 18:52:00
1:12 PM,10.4,3.2,73,30.33,10.0,North,8.1,-,N/A,,Clear,350,2013-02-15 19:12:00
1:33 PM,10.4,3.2,73,30.33,10.0,NNW,6.9,-,N/A,,Clear,340,2013-02-15 19:33:00
1:52 PM,10.4,3.2,73,30.33,10.0,North,8.1,-,N/A,,Clear,350,2013-02-15 19:52:00
2:12 PM,12.2,5.0,73,30.33,10.0,North,10.4,-,N/A,,Clear,350,2013-02-15 20:12:00
2:33 PM,12.2,5.0,73,30.33,10.0,North,11.5,-,N/A,,Clear,350,2013-02-15 20:33:00
2:52 PM,10.4,6.8,85,30.33,10.0,North,11.5,-,N/A,,Clear,350,2013-02-15 20:52:00
3:13 PM,10.4,5.0,79,30.33,10.0,NNW,10.4,-,N/A,,Clear,340,2013-02-15 21:13:00
3:32 PM,10.4,5.0,79,30.33,10.0,NNW,13.8,-,N/A,,Clear,340,2013-02-15 21:32:00
3:52 PM,10.4,5.0,79,30.33,10.0,NNW,11.5,-,N/A,,Clear,340,2013-02-15 21:52:00
4:13 PM,10.4,5.0,79,30.33,10.0,North,9.2,-,N/A,,Clear,350,2013-02-15 22:13:00
4:32 PM,10.4,5.0,79,30.33,10.0,North,9.2,-,N/A,,Clear,350,2013-02-15 22:32:00
4:52 PM,8.6,3.2,79,30.32,10.0,NNW,8.1,-,N/A,,Clear,330,2013-02-15 22:52:00
5:13 PM,8.6,3.2,79,30.33,10.0,NNW,8.1,-,N/A,,Clear,330,2013-02-15 23:13:00
5:32 PM,6.8,1.4,79,30.32,10.0,NNW,6.9,-,N/A,,Clear,330,2013-02-15 23:32:00
5:52 PM,5.0,1.4,85,30.32,10.0,NNW,6.9,-,N/A,,Clear,330,2013-02-15 23:52:00
6:13 PM,3.2,-0.4,85,30.31,10.0,NW,8.1,-,N/A,,Clear,320,2013-02-16 00:13:00
6:32 PM,1.4,-0.4,92,30.31,10.0,NW,4.6,-,N/A,,Clear,310,2013-02-16 00:32:00
6:52 PM,-0.4,-4.0,85,30.31,10.0,NW,4.6,-,N/A,,Clear,310,2013-02-16 00:52:00
7:13 PM,-0.4,-4.0,85,30.30,10.0,NW,5.8,-,N/A,,Clear,310,2013-02-16 01:13:00
7:32 PM,-0.4,-4.0,85,30.30,10.0,Calm,Calm,-,N/A,,Clear,0,2013-02-16 01:32:00
7:52 PM,-2.2,-4.0,92,30.29,10.0,Calm,Calm,-,N/A,,Scattered Clouds,0,2013-02-16 01:52:00
8:13 PM,-0.4,-4.0,85,30.30,10.0,Calm,Calm,-,N/A,Snow,Light Snow,0,2013-02-16 02:13:00
8:32 PM,-0.4,-2.2,92,30.29,10.0,Calm,Calm,-,N/A,Snow,Light Snow,0,2013-02-16 02:32:00
8:52 PM,1.4,-0.4,92,30.29,10.0,Calm,Calm,-,N/A,Snow,Light Snow,0,2013-02-16 02:52:00
9:13 PM,3.2,-0.4,85,30.28,10.0,Calm,Calm,-,N/A,Snow,Light Snow,0,2013-02-16 03:13:00
9:32 PM,3.2,1.4,92,30.28,10.0,Calm,Calm,-,N/A,Snow,Light Snow,0,2013-02-16 03:32:00
9:52 PM,5.0,1.4,85,30.28,10.0,Calm,Calm,-,N/A,Snow,Light Snow,0,2013-02-16 03:52:00
10:13 PM,6.8,3.2,85,30.27,10.0,Calm,Calm,-,N/A,Snow,Light Snow,0,2013-02-16 04:13:00
10:32 PM,6.8,5.0,92,30.26,10.0,Calm,Calm,-,N/A,Snow,Light Snow,0,2013-02-16 04:32:00
10:53 PM,8.6,6.8,92,30.26,10.0,Calm,Calm,-,N/A,Snow,Light Snow,0,2013-02-16 04:53:00
11:13 PM,8.6,6.8,92,30.26,10.0,NW,3.5,-,N/A,Snow,Light Snow,320,2013-02-16 05:13:00
11:32 PM,10.4,8.6,92,30.25,10.0,NNW,6.9,-,N/A,Snow,Light Snow,340,2013-02-16 05:32:00
11:53 PM,10.4,8.6,92,30.24,10.0,NNW,8.1,-,N/A,Snow,Light Snow,340,2013-02-16 05:53:00